Hourly Weather Roundup
Issued by NWS Central Illinois

Home | Current Version | Previous Version | Graphics & Text | Print | Product List | Glossary On
Versions: 1 2 3 4 5 6 7 8 9 10 11 12 13 14 15 16 17 18 19 20 21 22 23 24 25 26 27 28 29 30 31 32 33 34 35 36 37 38 39 40 41 42 43 44 45 46 47 48 49 50
000
NZUS43 KILX 281410
HWRILX

AREA WEATHER ROUNDUP
NATIONAL WEATHER SERVICE, LINCOLN IL
900 AM CDT TUE MAR 28 2017


CITY           SKY/WX    TMP DP  RH WIND       PRES   REMARKS
BLOOMINGTON    CLOUDY    44  41  89 NE13      30.08R
CHAMPAIGN      CLOUDY    46  39  76 N13       30.07R
DECATUR        PTSUNNY   48  41  76 N10       30.08R
EFFINGHAM      CLOUDY    49  46  92 N7        30.08R
FLORA          CLOUDY    52  48  86 N7        30.05R FOG
GALESBURG      CLOUDY    47  47  98 NE3       30.09R FOG
JACKSONVILLE   CLOUDY    50  49  96 N7        30.07F FOG
LACON          CLOUDY    44  41  89 NE5       30.09R
LAWRENCEVILLE  CLOUDY    52  49  89 N12       30.03R FOG
LITCHFIELD     CLOUDY    50  48  93 N6        30.07S FOG
$$


CITY           SKY/WX    TMP DP  RH WIND       PRES   REMARKS
LINCOLN        CLOUDY    47  44  90 NE6       30.09R
MACOMB         CLOUDY    49  48  98 NE7       30.10S FOG
MATTOON        CLOUDY    47  44  90 N12       30.05R
MT CARMEL AP   CLOUDY    51  48  89 N10       30.03R FOG
OLNEY-NOBLE AP CLOUDY    50  50 100 N10       30.05S FOG
PARIS          MOSUNNY   46  43  87 N8        30.06R
PEORIA         CLOUDY    47  43  86 E10       30.09R
PONTIAC        CLOUDY    44  41  90 N8        30.10R
RANTOUL        CLOUDY    46  40  81 N12       30.07R
SPRINGFIELD    CLOUDY    50  45  83 E7        30.09R HAZE
TAYLORVILLE    NOT AVBL
$$

...REGIONAL REPORTS...


CITY           SKY/WX    TMP DP  RH WIND       PRES   REMARKS
CHICAGO O`HARE CLOUDY    42  37  82 N10       30.09R
KANKAKEE       CLOUDY    42  38  86 N8        30.09R
MOLINE         CLOUDY    49  44  83 NE6       30.09R HAZE
MOUNT STERLING CLOUDY    49  47  93 NE6       30.07R FOG
MOUNT VERNON   CLOUDY    52  48  86 N8        30.06R
PITTSFIELD     CLOUDY    51  49  93 NE5       30.08R FOG
QUINCY         CLOUDY    50  48  93 NE7       30.07R FOG
ROCKFORD       CLOUDY    43  37  79 NE10      30.13R
$$


CITY           SKY/WX    TMP DP  RH WIND       PRES   REMARKS
BURLINGTON     CLOUDY    49  47  93 NE8       30.08R
CEDAR RAPIDS   CLOUDY    46  45  96 NE6       30.09R
DES MOINES     CLOUDY    48  42  80 N5        30.10R
KIRKSVILLE     CLOUDY    48  47  96 NE8       30.09R FOG
OTTUMWA        CLOUDY    47  45  93 N5        30.09R
ST LOUIS       CLOUDY    54  48  80 NE6       30.07R
$$


CITY           SKY/WX    TMP DP  RH WIND       PRES   REMARKS
TERRE HAUTE    CLOUDY    49  44  83 NW9       30.04R
EVANSVILLE     CLOUDY    55  51  86 N7        30.03R FOG
INDIANAPOLIS   CLOUDY    50  47  89 N12       30.00R
LAFAYETTE      CLOUDY    42  41  96 N7        30.06R
MADISON        CLOUDY    42  36  79 NE6       30.12R
MILWAUKEE      CLOUDY    42  36  79 N12       30.11S
$$





USA.gov is the U.S. government's official web portal to all federal, state and local government web resources and services.